FW5416 Weather Reports


Display with metric or nautical units.
time (UTC)temp
F
wind
direction
speed
MPH
gust
MPH
rain 1hr
in
rain 24hr
in
rain mn
in
humidity
%
barometer
mb
20260507201532 71 289 8.0 18.0 0.00 0.00 0.00 32 1018.1
20260507200150 71 315 8.0 21.0 0.00 0.00 0.00 31 1018.2
20260507194531 71 325 7.0 15.0 0.00 0.00 0.00 33 1018.4
20260507193031 71 348 7.0 16.0 0.00 0.00 0.00 34 1018.6
20260507190035 70 341 5.0 12.0 0.00 0.00 0.00 37 1018.9
20260507184657 69 318 5.0 15.0 0.00 0.00 0.00 39 1018.9
20260507184648 68 300 6.0 15.0 0.00 0.00 0.00 40 1019.1
20260507181642 67 315 4.0 12.0 0.00 0.00 0.00 44 1019.1
20260507180031 65 306 6.0 12.0 0.00 0.00 0.00 45 1019.3
20260507174536 65 307 6.0 15.0 0.00 0.00 0.00 47 1019.5
20260507173148 64 330 6.0 14.0 0.00 0.00 0.00 49 1019.8
20260507171533 64 345 6.0 12.0 0.00 0.00 0.00 50 1019.9
20260507170034 63 323 5.0 12.0 0.00 0.00 0.00 52 1020.0
20260507164534 62 297 6.0 12.0 0.00 0.00 0.00 53 1020.0
20260507163149 61 280 6.0 12.0 0.00 0.00 0.00 56 1020.1
20260507161643 60 296 4.0 11.0 0.00 0.00 0.00 59 1020.3
20260507160032 59 281 6.0 13.0 0.00 0.00 0.00 61 1020.6
20260507154531 58 292 7.0 15.0 0.00 0.00 0.00 62 1020.9
20260507153031 58 282 7.0 14.0 0.00 0.00 0.00 64 1020.9
20260507150037 55 278 5.0 11.0 0.00 0.00 0.00 70 1021.0
20260507144607 54 291 7.0 12.0 0.00 0.00 0.00 72 1020.9
20260507143036 54 298 6.0 12.0 0.00 0.00 0.00 74 1020.9
20260507140031 52 345 4.0 9.0 0.00 0.00 0.00 78 1020.9
20260507134605 51 25 4.0 7.0 0.00 0.00 0.00 79 1020.9
20260507133029 51 44 5.0 7.0 0.00 0.00 0.00 79 1020.8
20260507131606 51 59 7.0 13.0 0.00 0.00 0.00 79 1020.6
20260507130034 51 54 5.0 9.0 0.00 0.00 0.00 78 1020.5
20260507124535 51 34 3.0 8.0 0.00 0.00 0.00 77 1020.5
20260507121532 53 337 3.0 7.0 0.00 0.00 0.00 76 1020.5
20260507120147 52 313 3.0 10.0 0.00 0.00 0.00 78 1020.4
20260507114539 52 354 2.0 8.0 0.00 0.00 0.00 77 1020.2
20260507113033 53 15 4.0 9.0 0.00 0.00 0.00 77 1020.1
20260507111531 53 2 4.0 9.0 0.00 0.00 0.00 77 1019.9
20260507110036 53 11 3.0 8.0 0.00 0.00 0.00 76 1019.8
20260507103032 54 3 3.0 7.0 0.00 0.00 0.00 74 1019.7
20260507101537 55 28 3.0 9.0 0.00 0.00 0.00 73 1019.6
20260507100044 55 198 2.0 7.0 0.00 0.00 0.00 72 1019.6
20260507094531 56 221 2.0 7.0 0.00 0.00 0.00 71 1019.6
20260507093031 57 298 4.0 16.0 0.00 0.00 0.00 70 1019.5
20260507091535 57 301 3.0 9.0 0.00 0.00 0.00 70 1019.6
20260507090036 58 271 6.0 14.0 0.00 0.00 0.00 69 1019.5
20260507084530 58 263 9.0 16.0 0.00 0.00 0.00 68 1019.4
20260507083034 59 261 7.0 15.0 0.00 0.00 0.00 67 1019.4
20260507081607 59 265 7.0 17.0 0.00 0.00 0.00 67 1019.4
20260507074536 59 266 9.0 20.0 0.00 0.00 0.00 68 1019.2
20260507073031 59 271 9.0 19.0 0.00 0.00 0.00 69 1019.1
20260507070029 59 281 10.0 21.0 0.00 0.00 0.00 69 1019.2
20260507063033 60 278 8.0 16.0 0.00 0.00 0.00 68 1019.4
20260507061535 61 269 9.0 18.0 0.00 0.00 0.00 68 1019.5
20260507060031 61 271 9.0 23.0 0.00 0.00 0.00 67 1019.7
20260507054534 61 275 8.0 17.0 0.00 0.00 0.00 66 1019.8
20260507051535 62 285 6.0 14.0 0.00 0.00 0.00 61 1019.9
20260507044530 64 286 6.0 14.0 0.00 0.00 0.00 54 1019.9
20260507043035 64 297 7.0 17.0 0.00 0.00 0.00 52 1019.8
20260507040044 65 266 7.0 16.0 0.00 0.00 0.00 50 1019.4
20260507033029 66 261 11.0 24.0 0.00 0.00 0.00 49 1018.9
20260507031535 67 257 10.0 22.0 0.00 0.00 0.00 48 1018.7
20260507030037 68 255 9.0 17.0 0.00 0.00 0.00 47 1018.8
20260507024531 69 265 9.0 17.0 0.00 0.00 0.00 47 1018.7
20260507023036 68 265 10.0 19.0 0.00 0.00 0.00 47 1018.7
20260507021648 68 265 11.0 19.0 0.00 0.00 0.00 47 1018.7
20260507014528 69 268 15.0 26.0 0.00 0.00 0.00 46 1018.4
20260507013031 69 266 15.0 25.0 0.00 0.00 0.00 45 1018.3
20260507011533 69 261 13.0 24.0 0.00 0.00 0.00 44 1018.3
20260507010030 70 263 13.0 24.0 0.00 0.00 0.00 44 1018.3
20260507004647 70 266 13.0 29.0 0.00 0.00 0.00 44 1018.3
20260507003108 71 267 12.0 24.0 0.00 0.00 0.00 41 1018.0
20260507000028 71 269 13.0 23.0 0.00 0.00 0.00 41 1017.9
20260506234532 71 268 14.0 27.0 0.00 0.00 0.00 41 1017.8
20260506233037 72 271 12.0 22.0 0.00 0.00 0.00 42 1017.8
20260506231535 74 277 13.0 27.0 0.00 0.00 0.00 41 1017.6
20260506230029 74 291 15.0 25.0 0.00 0.00 0.00 41 1017.6
20260506224529 73 283 13.0 24.0 0.00 0.00 0.00 41 1017.8
20260506223033 73 273 16.0 30.0 0.00 0.00 0.00 42 1018.0
20260506220107 74 278 13.0 25.0 0.00 0.00 0.00 42 1018.1
20260506213036 75 268 8.0 23.0 0.00 0.00 0.00 43 1018.2
20260506210036 74 277 10.0 19.0 0.00 0.00 0.00 44 1018.5
20260506204533 74 273 11.0 21.0 0.00 0.00 0.00 45 1018.6